Location: Riverton
(43.0250°N, 108.3790°W)
Time: 10:14:51
(UTC-06:00)

Daily predictions for brighter satellites

Satellite Brightness Start Highest point End
(mag) Time Altitude Azimuth Time Altitude Azimuth Time Altitude Azimuth
Cosmos 1898 Rocket 3.6 19:49:08 10° S 19:54:20 58° ESE 19:59:32 10° NNE
Cosmos 1934 Rocket 4.4 19:51:13 10° SSE 19:56:52 40° E 20:02:30 10° NNE
H-2A R/B 3.4 19:54:56 10° SE 19:58:28 35° ENE 20:02:05 10° N
BREEZE-M DEB (TANK) 4.0 19:58:35 10° WNW 20:00:44 20° N 20:02:37 10° NE
FENGYUN 3A 3.7 19:55:26 10° SSE 20:00:46 64° ENE 20:06:07 10° N
Cosmos 1707 2.7 19:58:21 10° N 20:02:16 81° E 20:06:10 10° S
Meteor 1-24 Rocket 3.9 19:58:37 10° N 20:03:55 50° ENE 20:09:22 10° SSE
Cosmos 2263 Rocket 4.4 20:00:57 10° WSW 20:05:46 28° NW 20:10:36 10° N
Meteor 2-5 Rocket 3.9 20:04:49 10° N 20:10:32 86° W 20:16:22 10° S
Lacrosse 5 rocket 3.6 20:09:46 10° NNW 20:11:43 13° NNE 20:13:36 10° NE
BREEZE-M DEB (TANK) 3.6 20:09:12 10° SSW 20:11:43 34° SE 20:17:06 10° ENE
HJ-1C 3.3 20:08:55 10° SSE 20:12:17 74° ENE 20:15:43 10° N
Geosat 4.4 20:08:00 10° NE 20:12:42 39° ESE 20:17:23 10° S
Meteor 1-4 Rocket 4.2 20:14:46 12° ESE 20:15:48 14° E 20:17:36 10° ENE
ALOS 2.3 20:11:55 10° SSE 20:16:36 88° WSW 20:21:19 10° NNW
Cosmos 1821 Rocket 4.0 20:10:22 10° S 20:16:44 75° E 20:23:06 10° N
Cosmos 1544 4.4 20:14:57 10° SE 20:17:42 20° E 20:20:27 10° NE
Cosmos 1766 3.5 20:14:02 10° SSE 20:17:43 44° E 20:21:26 10° NNE
Cosmos 2082 Rocket 3.5 20:13:32 10° N 20:17:59 23° NE 20:21:38 13° E
RESURS DK-1 2.7 20:14:04 10° NNW 20:18:05 46° ENE 20:22:04 10° SE
GP-B 4.5 20:15:00 10° ESE 20:18:09 19° ENE 20:21:19 10° NNE
Cosmos 1812 Rocket 3.5 20:13:58 10° S 20:18:20 64° E 20:22:42 10° NNE
Cosmos 858 Rocket 4.5 20:13:40 10° SSW 20:18:56 84° ESE 20:24:15 10° NNE
Resurs 01 Rocket 1.6 20:14:55 10° SSE 20:19:16 65° ENE 20:23:39 10° N
SL-27 R/B 2.8 20:16:56 10° N 20:20:24 47° ENE 20:23:54 10° SE
USA 267 4.5 20:15:27 10° ENE 20:20:57 30° NNE 20:26:27 10° NW
Cosmos 1535 Rocket 4.5 20:17:31 10° S 20:23:46 82° E 20:30:09 10° N
Meteor 1-29 4.4 20:22:00 10° NE 20:24:32 19° E 20:26:20 13° SE
COSMOS 2406 3.9 20:19:58 10° NNW 20:25:38 59° WSW 20:31:13 10° S
Cosmos 1937 Rocket 3.5 20:21:56 10° SSW 20:27:11 82° ESE 20:32:30 10° NNE
Lacrosse 5 2.1 20:26:31 10° SSW 20:31:23 48° SE 20:36:16 10° NE
Cosmos 1076 Rocket 4.3 20:30:34 10° NNE 20:34:21 30° ENE 20:36:38 18° ESE
Cosmos 1605 Rocket 4.1 20:28:35 10° SSE 20:34:40 57° E 20:40:51 10° NNE
Cosmos 2298 Rocket 4.4 20:29:52 10° SSW 20:35:08 71° WNW 20:40:29 10° NNE
SeaSat 1 3.6 20:33:30 10° S 20:38:11 44° WSW 20:42:54 10° NW
Cosmos 1844 3.9 20:34:53 10° SSW 20:40:39 80° WNW 20:46:30 10° NNE
Spot 1 4.3 20:38:49 10° SSE 20:43:18 60° ENE 20:48:06 10° N
Cosmos 2123 Rocket 4.0 20:40:03 10° N 20:46:25 88° E 20:52:43 10° S
CZ-2D R/B 3.3 20:44:00 10° S 20:47:51 83° WSW 20:51:46 10° NNW
CZ-3B DEB 2.9 20:37:28 10° SW 20:48:57 86° NW 20:53:59 10° NE
Helios 1B rocket 2.5 20:47:39 10° NNE 20:51:44 55° E 20:55:46 10° S
Cosmos 1674 3.5 20:50:02 10° NNE 20:53:23 29° ENE 20:53:31 29° E
Cosmos 1805 3.2 20:50:31 10° S 20:54:20 61° E 20:58:12 10° NNE
Helios 1A 2.8 20:50:45 13° SSE 20:54:27 75° ENE 20:58:38 10° N
Cosmos-2242 4.0 20:58:47 27° ENE 20:58:47 27° ENE 21:01:51 10° NNE
Cosmos 1867 4.2 20:53:31 10° S 20:58:17 32° ESE 21:03:05 10° NE
Timation 2 Rocket 4.5 20:56:09 10° NNW 21:02:11 41° NE 21:04:44 29° ESE
Cosmos 1340 Rocket 4.1 21:00:01 10° NNE 21:02:52 24° ENE 21:02:52 24° ENE
Lacrosse 4 Rocket 3.2 20:59:48 10° WSW 21:03:28 32° NW 21:07:09 10° NNE
Cosmos 1153 Rocket 4.5 20:57:41 10° S 21:04:00 66° E 21:10:21 10° NNE
CZ-4B DEB 4.4 21:05:13 30° SSE 21:06:54 86° ENE 21:10:30 10° NNW
Cosmos 1470 4.2 21:09:00 23° NE 21:09:00 23° NE 21:10:56 10° NNE
Cosmos 372 Rocket 4.2 21:09:39 10° S 21:14:28 44° ESE 21:19:21 10° NNE
Cosmos 1758 3.3 21:14:38 10° S 21:18:36 80° W 21:22:37 10° N
YAOGAN 6 3.8 21:20:41 31° NE 21:20:41 31° NE 21:23:08 10° N
Tiangong 1 2.6 21:18:11 10° W 21:20:14 26° SW 21:20:14 26° SW
Cosmos 2344 4.0 21:16:10 10° SW 21:23:47 66° NW 21:32:37 10° NE
SJ-11-01 4.2 21:22:46 34° SSE 21:24:53 89° ENE 21:29:39 10° NNW
H-2A R/B 3.8 21:26:32 18° NE 21:26:32 18° NE 21:29:21 10° NNE
Cosmos 1447 Rocket 4.5 21:19:49 10° N 21:25:58 82° W 21:31:29 13° S
Cosmos 1939 Rocket 2.8 21:25:21 56° SSE 21:26:12 86° E 21:30:23 10° NNW
Cosmos 158 Rocket 3.9 21:22:44 10° NNW 21:27:49 65° ENE 21:28:50 52° ESE
USA 186 3.8 21:28:06 18° W 21:28:06 18° W 21:29:44 10° NW
Cosmos 1953 2.6 21:24:50 10° SSW 21:28:52 66° W 21:32:57 10° N
Cosmos 1408 Rocket 3.5 21:24:55 10° N 21:29:24 85° E 21:30:24 55° SSE
USA 215 3.1 21:23:46 10° NE 21:30:21 81° SE 21:36:53 10° SW
Abrixas 4.0 21:27:38 10° WNW 21:29:25 34° NW 21:29:25 34° NW
Cosmos 1833 Rocket 2.6 21:27:29 10° NNW 21:33:07 70° ENE 21:34:23 52° SE
Cosmos 2278 Rocket 2.9 21:27:51 10° SW 21:33:24 53° WNW 21:38:59 10° NNE
Cosmos 1459 Rocket 3.9 21:29:43 22° S 21:33:56 66° E 21:40:04 10° NNE
Cosmos 2173 Rocket 3.9 21:32:36 27° SSE 21:36:05 66° E 21:42:16 10° NNE
Envisat 3.2 21:34:42 26° S 21:37:30 67° WSW 21:42:35 10° NNW
Cosmos 1125 Rocket 3.6 21:39:33 10° SSW 21:44:44 74° WNW 21:49:58 10° NNE
Cosmos 2297 3.6 21:39:58 10° SSW 21:45:40 89° WNW 21:51:28 10° NNE
MetOp-B 4.2 21:48:10 56° ENE 21:48:10 56° ENE 21:53:14 10° N
Cosmos 1048 Rocket 4.1 21:43:17 10° NNW 21:48:24 70° WSW 21:49:28 53° SSW
Meteor 1-4 Rocket 4.2 21:48:51 20° SW 21:50:39 32° WNW 21:53:48 10° N
Lacrosse 5 rocket 2.7 21:48:19 10° NW 21:50:52 29° N 21:50:52 29° N
GP-B 4.4 21:52:14 17° SSW 21:55:09 38° W 21:59:20 10° NNW
COSMOS 2487 4.2 21:56:25 10° NNW 21:58:41 33° NW 21:58:41 33° NW
Cosmos 1271 Rocket 4.4 22:03:26 31° N 22:03:26 31° N 22:05:41 10° N
Cosmos 2082 Rocket 2.5 21:56:55 10° NNW 22:02:32 63° WSW 22:03:31 54° SSW
USA 267 3.4 22:02:01 53° ENE 22:03:11 61° NNE 22:09:37 10° NW
ERS-1 Rocket 3.1 22:03:31 66° SW 22:03:50 68° WSW 22:08:53 10° NNW
Cosmos 1818 4.2 22:00:43 10° NW 22:05:54 46° WSW 22:06:41 43° SW
Cosmos 2016 Rocket 3.8 22:06:36 73° SSE 22:07:13 84° E 22:13:25 10° N
SPOT 1/Viking Rocket 4.5 22:10:27 38° NNE 22:10:27 38° NNE 22:13:57 10° N
Cosmos 1725 Rocket 4.3 22:14:34 51° NE 22:14:34 51° NE 22:19:19 10° NNE
Cosmos 2251 Rocket 4.2 22:08:47 10° NNW 22:12:48 48° NNE 22:12:48 48° NNE
Lacrosse 5 3.2 22:09:47 10° W 22:14:30 37° NNW 22:16:45 25° NNE
SPOT 5 3.4 22:17:06 62° N 22:17:06 62° N 22:21:33 10° NNW
Tsikada Rocket 4.1 22:17:18 10° N 22:22:39 64° NNE 22:22:39 64° NNE
Meteor 2-17 Rocket 4.5 22:23:38 72° WSW 22:24:02 76° W 22:30:13 10° N
SL-08 R/B 4.5 22:26:41 83° WNW 22:26:41 83° WNW 22:33:01 10° N
ARGOS 3.7 22:29:44 54° NNW 22:29:44 54° NNW 22:33:50 10° NNW
Terra 4.1 22:51:56 19° N 22:51:56 19° N 22:53:16 10° N
CZ-3B DEB 4.0 22:56:45 10° WNW 23:01:48 22° NNW 23:01:57 22° NNW
H-2A R/B 3.7 23:07:10 32° NNW 23:07:10 32° NNW 23:10:02 10° NNW
USA 215 4.3 23:07:05 10° NE 23:13:01 40° NNW 23:18:59 10° W
